Pine Ridge, SD

4:08 AM MDT on July 28, 2017 (GMT -0600)
Pine Ridge

Weather History for KIEN - February, 2013

Change the Weather History Date:

Tuesday, February 5, 2013

  Actual Average Record
Temperature  
Mean Temperature 39 °F 25 °F  
Max Temperature 49 °F 38 °F 56 °F (2009)
Min Temperature 29 °F 11 °F -18 °F (2014)
Degree Days  
Heating Degree Days 26 40  
Month to date heating degree days 147 203  
Since 1 July heating degree days 4274 4480  
Cooling Degree Days 0 0  
Month to date cooling degree days 0 0  
Year to date cooling degree days 0 0  
Moisture  
Dew Point 27 °F    
Average Humidity 66    
Maximum Humidity 85    
Minimum Humidity 46    
Precipitation  
Precipitation 0.00 in 0.01 in 0.23 in (2001)
Month to date precipitation 0.01 0.09  
Year to date precipitation 0.74 0.41  
Sea Level Pressure  
Sea Level Pressure 29.95 in    
Wind  
Wind Speed 4 mph (SW)    
Max Wind Speed 14 mph    
Max Gust Speed 20 mph    
Visibility 10 miles    
Events      
T = Trace of Precipitation, MM = Missing Value Source: NWS Daily Summary

Daily Weather History Graph

Daily Weather History Graph

Search for Another Location

Airport or City:

Trip Planner

Search our weather history database for the weather conditions in past years. The results will help you decide how hot, cold, wet, or windy it might be!

Date:

Astronomy

Feb. 05, 2013 Rise Set
Actual Time 7:00 AM MST 5:08 PM MST
Civil Twilight 6:30 AM MST 5:38 PM MST
Nautical Twilight 5:56 AM MST 6:12 PM MST
Astronomical Twilight 5:23 AM MST 6:45 PM MST
Moon 2:47 AM MST (2/5) 12:25 PM MST (2/5)
Length of Visible Light 11h 07m
Length of Day
10h 08m
Waning Crescent, 26% of the Moon is Illuminated
Feb 5
Waning Crescent
Feb 10
New
Feb 17
First Quarter
Feb 25
Full
Mar 4
Last Quarter

Hourly Weather History & Observations

Time (MST) Temp. Windchill Dew Point Humidity Pressure Visibility Wind Dir Wind Speed Gust Speed Precip Events Conditions
12:52 AM 35.1 °F 31.0 °F 25.0 °F 67% 29.88 in 10.0 mi NW 4.6 mph - N/A   Overcast
1:52 AM 35.1 °F 31.0 °F 23.0 °F 61% 29.91 in 10.0 mi West 4.6 mph - N/A   Overcast
2:52 AM 33.1 °F 27.7 °F 25.0 °F 72% 29.93 in 10.0 mi South 5.8 mph - N/A   Overcast
3:52 AM 30.0 °F 25.2 °F 24.1 °F 79% 29.95 in 10.0 mi WSW 4.6 mph - N/A   Clear
4:52 AM 30.9 °F 27.5 °F 25.0 °F 79% 29.96 in 10.0 mi WSW 3.5 mph - N/A   Overcast
5:52 AM 30.0 °F - 23.0 °F 75% 29.99 in 10.0 mi Calm Calm - N/A   Overcast
6:52 AM 30.0 °F - 24.1 °F 79% 30.04 in 10.0 mi Calm Calm - N/A   Overcast
7:52 AM 30.9 °F - 26.1 °F 82% 30.06 in 10.0 mi Calm Calm - N/A   Overcast
8:52 AM 35.1 °F 32.2 °F 27.0 °F 72% 30.07 in 10.0 mi SSW 3.5 mph - N/A   Clear
9:52 AM 37.9 °F 34.4 °F 28.0 °F 68% 30.07 in 10.0 mi South 4.6 mph - N/A   Clear
10:52 AM 41.0 °F 39.0 °F 28.9 °F 62% 30.07 in 10.0 mi SSW 3.5 mph - N/A   Clear
11:52 AM 44.1 °F 40.1 °F 28.9 °F 55% 30.03 in 10.0 mi WSW 6.9 mph - N/A   Clear
12:52 PM 46.0 °F 44.8 °F 28.0 °F 50% 29.98 in 10.0 mi South 3.5 mph - N/A   Clear
1:52 PM 46.9 °F - 30.0 °F 52% 29.95 in 10.0 mi WSW 6.9 mph - N/A   Partly Cloudy
2:52 PM 48.0 °F - 28.9 °F 48% 29.93 in 10.0 mi SW 8.1 mph - N/A   Overcast
3:52 PM 44.1 °F 41.5 °F 30.9 °F 60% 29.94 in 10.0 mi WSW 4.6 mph - N/A   Overcast
4:52 PM 42.1 °F - 30.0 °F 62% 29.92 in 10.0 mi Calm Calm - N/A   Overcast
5:52 PM 37.9 °F 32.7 °F 28.9 °F 70% 29.93 in 10.0 mi ENE 6.9 mph - N/A   Partly Cloudy
6:52 PM 36.0 °F 32.1 °F 28.0 °F 73% 29.93 in 10.0 mi ENE 4.6 mph - N/A   Clear
7:52 PM 37.9 °F - 26.1 °F 62% 29.91 in 10.0 mi Calm Calm - N/A   Clear
8:52 PM 39.9 °F - 25.0 °F 55% 29.87 in 10.0 mi Calm Calm - N/A   Clear
9:52 PM 37.0 °F 30.4 °F 27.0 °F 67% 29.85 in 10.0 mi SSW 9.2 mph - N/A   Clear
10:52 PM 36.0 °F 32.1 °F 26.1 °F 67% 29.83 in 10.0 mi WSW 4.6 mph - N/A   Clear
11:52 PM 37.9 °F 30.9 °F 26.1 °F 62% 29.81 in 10.0 mi SW 10.4 mph - N/A   Clear